Tracking 28790 objects as of 19-Apr-2024
HD Live streaming from Space Station
objects crossing your sky now

COSMOS 970 DEB

Track COSMOS 970 DEB now!
10-day predictions


NORAD ID: 13503
Int'l Code: 1977-121BA
Perigee: 1,010.2 km
Apogee: 1,135.1 km
Inclination: 66.5 °
Period: 106.5 minutes
Semi major axis: 7443 km
RCS: 0.0157 m2 (small)
Launch date: December 21, 1977
Source: Commonwealth of Independent States (former USSR) (CIS)
Launch site: TYURATAM MISSILE AND SPACE COMPLEX (TTMTR)

Note: This is SATELLITE DEBRIS
Your satellite tracking list
Your tracking list is empty




NASA's NSSDC Master Catalog

Two Line Element Set (TLE):
1 13503U 77121BA  24109.50835483  .00000421  00000-0  73526-3 0  9995
2 13503  66.4705 204.5564 0083905 205.4176 247.1688 13.51836860 50404
Source of the keplerian elements: AFSPC